ETD3003 RJGG-OBBI

Flight info

Callsign ETD3003
Flight time N/A
Altitude 34000
Route ISE3 KOZA KEC ALUYO Z26 TONAR Y52 IGURU G581 HCN G86 KAPLI DCT IKELA/K0937F340 A1 LENKO DCT TRABE/N0507F340 DCT OKENA DCT CMP G473 BGO G472 PTN N895 SAGOD/N0501F360 N895 AAE L639 GUREV/N0495F380 L639 RASKI L301 RAGMA N571 MENSA/N0509F340 N571 IVOXI M557 TUMAK DCT ROTAG L768 ORDIG
Aircraft A35K/H-SDE2E3GHIJ1J3J4J5LM1ORWXY/LB1D1

Departure

Time 2026-05-04 22:24
Airport Chubu Centrair International Airport (RJGG)

Arrival

Time N/A
Airport Bahrain International Airport (OBBI)
Time Latitude Longitude Altitude Speed Heading
2026-05-04 21:45 34.85547 136.81385 34 ft 0 kts 81°
2026-05-04 21:49 34.85549 136.81405 34 ft 0 kts 81°
2026-05-04 21:49 34.85546 136.81382 34 ft 0 kts 81°
2026-05-04 22:12 34.85546 136.81378 7 ft 3 kts 81°
2026-05-04 22:12 34.85543 136.81351 34 ft 4 kts 84°
2026-05-04 22:12 34.85546 136.81322 31 ft 4 kts 124°
2026-05-04 22:12 34.85564 136.81299 31 ft 4 kts 150°
2026-05-04 22:13 34.85589 136.81287 33 ft 4 kts 168°
2026-05-04 22:13 34.85594 136.81285 32 ft 0 kts 170°
2026-05-04 22:18 34.85592 136.81286 34 ft 1 kts 170°
2026-05-04 22:18 34.85578 136.81289 34 ft 3 kts 169°
2026-05-04 22:18 34.85546 136.81296 34 ft 6 kts 170°
2026-05-04 22:19 34.85495 136.81309 34 ft 9 kts 168°
2026-05-04 22:19 34.85422 136.81327 34 ft 12 kts 168°
2026-05-04 22:19 34.85347 136.81312 34 ft 7 kts 230°
2026-05-04 22:19 34.85344 136.81254 34 ft 10 kts 265°
2026-05-04 22:20 34.85328 136.81140 34 ft 16 kts 258°
2026-05-04 22:20 34.85288 136.81039 34 ft 12 kts 206°
2026-05-04 22:20 34.85204 136.81049 34 ft 14 kts 169°
2026-05-04 22:20 34.85094 136.81075 34 ft 18 kts 169°
2026-05-04 22:21 34.84955 136.81108 34 ft 21 kts 169°
2026-05-04 22:21 34.84810 136.81143 34 ft 21 kts 168°
2026-05-04 22:21 34.84665 136.81178 34 ft 21 kts 169°
2026-05-04 22:21 34.84528 136.81211 34 ft 14 kts 169°
2026-05-04 22:22 34.84448 136.81192 34 ft 10 kts 231°
2026-05-04 22:22 34.84428 136.81102 33 ft 12 kts 261°
2026-05-04 22:22 34.84412 136.80994 31 ft 14 kts 258°
2026-05-04 22:22 34.84400 136.80900 29 ft 2 kts 279°
2026-05-04 22:23 34.84411 136.80884 29 ft 3 kts 319°
2026-05-04 22:23 34.84455 136.80868 29 ft 15 kts 346°
2026-05-04 22:23 34.84709 136.80806 32 ft 70 kts 348°
2026-05-04 22:23 34.85429 136.80633 30 ft 139 kts 349°
2026-05-04 22:24 34.86542 136.80377 338 ft 169 kts 346°
2026-05-04 22:24 34.87643 136.80024 1311 ft 163 kts 333°
2026-05-04 22:24 34.88359 136.79012 1812 ft 168 kts 288°
2026-05-04 22:24 34.88116 136.77592 2017 ft 187 kts 233°
2026-05-04 22:25 34.87046 136.76632 2322 ft 196 kts 213°
2026-05-04 22:25 34.85825 136.75934 2745 ft 198 kts 200°
2026-05-04 22:25 34.84478 136.75502 3121 ft 202 kts 190°
2026-05-04 22:25 34.83074 136.75098 3377 ft 215 kts 198°
2026-05-04 22:26 34.81584 136.74554 3594 ft 232 kts 197°
2026-05-04 22:26 34.79968 136.74021 3821 ft 249 kts 195°
2026-05-04 22:26 34.78233 136.73508 4058 ft 267 kts 194°
2026-05-04 22:26 34.76371 136.72994 4410 ft 279 kts 193°
2026-05-04 22:27 34.74444 136.72480 4889 ft 287 kts 193°
2026-05-04 22:27 34.72474 136.71962 5435 ft 291 kts 193°
2026-05-04 22:27 34.70488 136.71445 6070 ft 293 kts 194°
2026-05-04 22:27 34.68492 136.70927 6692 ft 294 kts 194°
2026-05-04 22:28 34.66484 136.70408 7253 ft 296 kts 194°
2026-05-04 22:28 34.64458 136.69884 7820 ft 299 kts 194°
2026-05-04 22:28 34.62413 136.69356 8375 ft 302 kts 195°
2026-05-04 22:28 34.60353 136.68824 8925 ft 304 kts 195°
2026-05-04 22:29 34.58275 136.68289 9510 ft 307 kts 195°
2026-05-04 22:29 34.56176 136.67755 10059 ft 309 kts 195°
2026-05-04 22:29 34.54034 136.67227 10370 ft 320 kts 195°
2026-05-04 22:29 34.51808 136.66678 10606 ft 333 kts 195°
2026-05-04 22:30 34.49490 136.66107 10842 ft 346 kts 195°
2026-05-04 22:30 34.47087 136.65516 11074 ft 359 kts 195°
2026-05-04 22:30 34.44599 136.64905 11331 ft 371 kts 195°
2026-05-04 22:30 34.42030 136.64274 11585 ft 382 kts 195°
2026-05-04 22:31 34.39384 136.63626 11830 ft 394 kts 195°
2026-05-04 22:31 34.36663 136.62959 12088 ft 404 kts 195°
2026-05-04 22:31 34.33891 136.62282 12488 ft 409 kts 195°
2026-05-04 22:31 34.31097 136.61600 12984 ft 411 kts 195°
2026-05-04 22:32 34.28291 136.60915 13488 ft 413 kts 195°
2026-05-04 22:32 34.25464 136.60224 13987 ft 415 kts 195°
2026-05-04 22:32 34.22670 136.59515 14418 ft 416 kts 197°
2026-05-04 22:32 34.19927 136.58460 14877 ft 412 kts 207°
2026-05-04 22:33 34.17408 136.56865 15351 ft 407 kts 218°
2026-05-04 22:33 34.15175 136.54795 15808 ft 405 kts 225°
2026-05-04 22:33 34.13072 136.52536 16278 ft 405 kts 226°
2026-05-04 22:33 34.10984 136.50254 16786 ft 405 kts 226°
2026-05-04 22:34 34.08885 136.47968 17269 ft 407 kts 226°
2026-05-04 22:34 34.06779 136.45683 17701 ft 409 kts 226°
2026-05-04 22:34 34.04657 136.43388 18187 ft 411 kts 226°
2026-05-04 22:34 34.02524 136.41086 18639 ft 412 kts 226°
2026-05-04 22:35 34.00391 136.38788 19094 ft 412 kts 226°
2026-05-04 22:35 33.98256 136.36490 19588 ft 411 kts 226°
2026-05-04 22:35 33.96122 136.34195 20016 ft 412 kts 226°
2026-05-04 22:35 33.93984 136.31897 20479 ft 411 kts 226°
2026-05-04 22:36 33.92569 136.30378 20790 ft 411 kts 226°
2026-05-04 22:36 33.90411 136.28062 21308 ft 410 kts 226°
2026-05-04 22:36 33.88309 136.25807 21792 ft 410 kts 226°
2026-05-04 22:36 33.86180 136.23526 22277 ft 410 kts 226°
2026-05-04 22:37 33.84049 136.21242 22759 ft 410 kts 226°
2026-05-04 22:37 33.81922 136.18966 23228 ft 410 kts 226°
2026-05-04 22:37 33.79792 136.16687 23695 ft 410 kts 226°